Wetbulb
56.78 57.13 57.17 57.25 56.98 57.13 56.91 56.05 56.21 56.18 55.91 55.78 55.66 55.85 55.99 55.99 55.52 51.73 47.35 53.03 54.81 61.72 60.82 54.03 52.24 50.46 49.01 44.38 47.21 48.12 40.70 38.84 41.86 44.83 47.50 51.76 52.47 57.37 59.39 57.82 57.68 58.59 56.66 57.90 59.24
56.14 56.41 56.61 56.90 57.03 56.75 56.64 56.77 56.29 56.34 56.25 56.39 56.01 55.73 55.37 55.28 50.54 48.13 55.13 62.23 63.20 63.31 52.08 48.91 46.16 49.91 43.77 43.33 44.44 42.15 38.97 40.87 45.80 47.59 47.63 49.74 52.21 55.08 55.93 56.31 55.39 56.93 59.05 60.92 59.62
55.12 55.53 55.99 56.18 56.41 56.85 56.45 56.59 56.67 56.26 56.56 56.36 56.12 55.65 55.37 54.32 47.97 52.14 65.86 61.75 64.47 62.38 50.96 48.15 48.83 48.46 42.77 43.30 43.23 43.65 40.61 45.35 47.54 48.83 49.50 48.88 50.41 55.77 54.94 52.46 55.34 55.25 56.61 57.68 58.19
54.44 54.74 54.93 55.33 55.51 55.95 56.33 56.32 56.53 56.56 55.77 56.07 55.66 55.62 55.89 51.80 43.33 54.35 65.53 65.32 63.82 56.22 50.10 47.58 47.21 44.09 42.15 40.90 44.64 40.60 45.89 46.86 47.82 49.77 49.25 47.90 51.25 49.56 51.48 52.84 54.60 54.53 55.59 54.12 53.86
53.93 54.10 54.01 54.28 54.73 54.99 55.62 55.84 56.05 55.77 55.62 55.06 55.12 55.39 52.69 47.54 48.95 59.92 64.41 63.09 57.74 53.25 49.34 47.16 46.80 45.20 41.84 43.45 44.19 42.55 45.34 47.68 49.03 49.04 47.91 50.68 47.69 47.17 48.80 52.46 52.66 52.97 53.41 52.78 52.79
54.54 53.97 53.69 53.71 54.34 54.72 55.46 55.49 55.63 55.53 55.04 54.78 54.65 54.74 50.69 44.77 56.97 62.93 60.71 58.25 54.11 49.73 48.00 47.17 47.53 48.59 46.14 44.41 42.83 45.78 46.33 46.84 47.40 47.69 48.07 46.41 47.34 46.64 49.07 52.58 51.78 51.81 51.38 51.97 52.61
54.72 54.44 54.34 53.56 53.82 54.11 54.69 54.76 54.65 54.90 54.64 54.62 54.47 53.63 50.21 48.05 57.51 59.79 56.09 54.29 55.98 54.01 50.50 51.18 51.46 48.37 47.89 45.47 48.20 48.73 44.67 46.55 46.59 46.13 45.76 47.45 44.56 45.13 48.77 50.36 50.10 50.41 51.21 52.01 52.44
54.91 54.51 54.50 54.02 53.47 53.74 54.16 54.10 54.22 54.55 55.02 54.84 54.20 52.40 47.08 57.74 57.16 55.55 55.76 55.20 56.46 55.15 53.31 53.70 52.62 49.17 46.73 48.59 47.97 44.67 43.28 36.97 43.63 46.62 47.58 45.86 39.31 47.07 49.55 48.22 48.17 49.66 51.30 52.33 52.46
55.26 54.87 54.67 54.39 53.75 53.40 53.57 53.55 53.67 54.99 56.15 54.57 51.39 49.95 47.79 59.17 55.16 55.31 55.57 54.57 54.42 54.76 54.09 54.23 51.48 47.07 47.46 42.33 39.53 41.13 35.36 38.10 41.63 46.99 46.26 44.03 40.77 47.25 49.31 48.90 47.40 48.05 49.63 50.84 51.21
55.34 54.91 54.73 54.65 53.98 53.44 52.62 53.07 53.90 54.16 54.17 54.60 54.32 48.79 52.87 52.09 54.77 55.36 53.14 54.01 53.80 52.86 50.30 49.34 45.89 41.93 40.97 38.08 32.34 36.13 37.30 39.87 40.85 45.22 46.08 42.65 42.54 46.06 48.24 48.46 47.98 47.95 48.75 49.58 50.49
55.71 54.97 54.65 54.47 54.06 52.64 51.39 49.35 50.00 48.96 51.52 49.47 49.99 50.74 53.42 56.05 56.05 52.60 53.37 53.21 53.50 50.15 43.47 46.73 40.13 36.98 40.46 43.50 44.41 44.02 41.83 40.32 44.12 47.56 44.93 42.21 42.07 44.67 46.55 46.55 45.92 46.94 48.14 48.63 49.47
55.38 54.99 54.69 54.34 53.55 52.64 50.53 46.54 51.92 52.41 45.79 53.21 54.95 53.01 56.48 55.83 51.11 53.05 54.30 48.83 48.13 43.06 45.53 43.65 39.29 45.21 47.31 46.71 45.30 44.24 40.93 39.94 43.81 46.49 43.18 42.36 42.16 44.80 46.35 46.64 47.25 47.71 48.37 48.81 49.88
54.69 54.41 54.35 54.02 52.68 50.47 48.40 50.53 56.23 56.03 45.00 50.31 54.45 53.49 53.81 53.58 50.10 50.89 51.84 49.74 46.76 44.06 44.46 41.45 45.24 49.07 47.42 44.58 43.66 41.67 40.02 40.65 40.97 44.54 44.38 42.73 39.96 42.86 46.82 47.88 49.10 49.34 49.79 50.30 49.94
54.33 54.02 53.88 53.10 49.72 52.28 51.87 57.10 56.48 55.62 40.28 47.62 49.47 52.95 54.56 52.73 48.55 54.24 53.39 49.95 47.05 43.83 45.32 44.32 47.85 47.22 46.13 44.33 44.12 38.48 44.72 44.87 43.65 40.23 33.65 42.71 30.91 40.26 44.55 45.90 47.97 48.78 47.84 49.22 50.17
54.04 54.00 53.64 52.48 46.89 48.80 54.27 54.42 54.40 52.89 34.91 49.34 49.75 54.32 52.85 49.05 50.47 50.39 54.52 50.34 45.03 44.72 44.26 42.72 44.44 44.78 44.31 44.89 46.39 42.44 46.49 44.61 43.50 38.87 37.32 39.19 33.78 38.64 43.82 44.24 46.46 47.44 48.73 48.83 50.13
53.70 53.88 53.14 50.96 49.45 52.18 55.32 56.05 52.78 41.37 36.33 47.37 49.62 47.58 47.29 48.77 49.68 50.88 50.75 51.12 50.04 45.40 45.01 44.69 48.77 47.43 46.35 47.78 47.62 48.75 44.36 42.42 40.46 36.99 30.31 37.99 36.93 37.51 42.42 44.08 46.22 47.52 48.68 49.57 50.09
53.23 52.96 51.44 51.31 49.53 55.25 55.76 50.84 41.24 38.26 50.42 45.95 46.16 47.70 45.86 45.00 46.68 47.76 45.80 43.79 39.85 36.15 37.03 43.78 44.62 48.10 49.91 44.31 47.36 46.03 38.36 29.55 27.83 28.78 31.02 42.33 38.68 40.48 46.26 47.45 48.54 46.61 47.52 48.50 49.25
52.51 50.88 50.95 52.23 53.90 54.86 52.92 45.34 36.44 45.88 45.68 49.60 48.12 47.49 44.62 47.20 46.95 47.67 45.32 41.55 45.53 44.06 38.35 36.17 35.56 45.24 49.18 46.94 44.03 43.86 41.61 33.75 29.51 27.49 32.35 42.07 36.89 41.24 47.78 48.55 48.54 49.09 48.19 48.82 47.97
50.80 50.69 53.07 56.60 56.37 54.91 48.30 41.27 40.76 46.10 47.68 45.79 46.22 43.01 43.12 47.62 47.26 46.43 44.54 43.27 45.41 46.12 39.35 37.01 38.90 48.47 49.40 49.88 47.82 43.21 39.00 43.63 35.56 37.07 30.62 36.03 41.19 45.20 47.59 47.04 47.70 47.39 47.88 45.31 46.52
47.18 48.23 52.17 59.19 58.29 53.46 44.97 42.18 46.44 50.74 48.52 47.12 41.48 45.13 41.69 44.03 44.29 44.83 43.20 47.32 45.83 46.88 46.60 42.41 35.38 45.41 47.64 48.70 48.92 44.55 45.79 35.00 35.57 27.72 25.06 34.07 36.50 36.19 40.35 42.12 44.11 43.05 42.44 43.97 45.33
46.93 48.54 55.74 58.06 57.20 48.50 40.54 45.44 48.60 50.53 49.28 45.68 43.41 42.12 42.68 42.72 43.01 42.24 43.54 47.28 48.07 46.30 45.67 42.69 39.16 39.99 43.38 42.50 41.71 41.33 39.03 40.38 37.82 35.09 27.25 26.08 31.46 42.58 41.52 41.23 40.66 42.59 43.53 44.72 45.75
47.13 45.38 56.13 57.29 46.05 47.16 45.64 48.20 49.61 48.92 50.03 48.14 46.71 44.90 42.88 43.26 41.40 41.38 41.95 45.73 50.26 48.81 42.87 44.93 38.69 34.24 38.69 45.27 47.88 45.61 42.07 40.81 34.63 33.18 35.03 30.59 32.74 44.54 43.35 43.04 43.74 43.66 45.33 45.58 45.30
43.66 47.24 56.37 54.10 40.00 43.23 47.82 48.89 50.04 47.51 47.36 46.05 44.70 45.85 45.22 41.68 38.19 42.61 44.03 48.94 49.73 47.57 43.35 43.92 36.22 30.52 34.36 40.16 43.81 41.95 43.72 43.00 40.70 36.59 31.07 24.60 28.94 44.32 44.47 44.30 44.35 42.66 43.27 44.43 45.44
44.61 43.64 50.17 50.11 48.85 44.33 42.91 44.18 44.70 49.73 47.58 47.39 45.07 45.90 43.19 41.23 42.74 41.22 42.74 47.08 48.65 47.93 49.94 45.80 37.07 34.70 30.56 36.34 39.91 37.41 40.67 42.03 38.99 29.84 31.88 32.34 34.70 39.19 41.56 41.70 42.27 42.31 42.93 43.24 44.02
46.72 45.63 46.69 39.90 43.57 44.33 44.06 44.04 42.66 43.14 46.20 45.84 43.59 43.43 41.18 38.31 40.10 39.67 43.35 43.52 46.93 49.19 44.72 39.66 32.85 36.37 38.34 40.64 41.08 40.37 40.23 40.75 38.30 37.56 32.28 34.52 34.97 38.49 39.94 40.28 41.14 42.16 42.92 42.64 43.05
44.35 43.64 45.52 42.99 45.07 44.54 43.38 42.70 42.64 43.12 42.69 41.24 41.23 42.03 40.57 36.62 40.29 36.98 39.70 40.35 40.27 44.45 41.03 42.09 32.75 36.54 35.74 40.83 40.54 38.42 40.56 40.79 40.62 40.37 38.27 37.57 36.48 40.52 41.73 42.60 41.65 41.07 41.37 40.98 41.32
49.70 49.76 44.76 43.52 42.97 41.91 42.55 43.36 43.18 43.74 44.34 44.50 41.86 40.10 39.82 41.75 43.55 42.27 41.90 41.70 41.63 40.74 41.45 39.02 35.84 34.66 30.44 39.07 38.80 33.33 39.52 41.62 42.61 40.77 39.42 33.45 36.26 40.84 39.59 40.04 39.40 39.79 40.48 40.06 40.90
MSLP
1019.31 1018.94 1018.58 1018.12 1017.76 1017.40 1016.99 1016.73 1016.53 1016.27 1016.02 1015.79 1015.49 1015.25 1015.05 1014.86 1014.63 1014.08 1012.86 1010.43 1010.18 1009.77 1009.83 1009.90 1009.79 1009.62 1009.92 1010.21 1010.15 1009.88 1009.95 1008.95 1008.08 1007.08 1005.51 1003.53 1003.24 1002.72 1001.95 1001.69 1001.95 1002.36 1002.83 1002.90 1002.66
1019.33 1018.84 1018.37 1018.04 1017.66 1017.25 1016.93 1016.51 1016.11 1015.86 1015.64 1015.39 1015.18 1015.06 1014.91 1014.57 1014.01 1012.31 1009.02 1008.95 1009.04 1009.40 1009.99 1009.82 1009.69 1009.46 1010.05 1009.76 1009.86 1009.36 1008.93 1008.14 1007.27 1006.25 1005.15 1003.63 1002.91 1002.49 1002.73 1003.05 1002.05 1002.52 1002.44 1002.49 1002.61
1019.22 1018.80 1018.30 1017.89 1017.50 1017.15 1016.62 1016.40 1016.10 1015.69 1015.35 1015.10 1014.92 1014.72 1014.52 1014.26 1013.06 1009.21 1007.21 1008.01 1008.82 1009.19 1009.45 1009.34 1009.10 1009.17 1009.25 1009.01 1008.92 1008.47 1008.18 1007.51 1006.26 1005.26 1004.55 1003.63 1002.63 1002.04 1002.06 1004.00 1003.54 1003.19 1002.80 1002.75 1002.73
1019.18 1018.65 1018.22 1017.78 1017.33 1017.02 1016.68 1016.14 1015.88 1015.57 1015.32 1015.05 1014.81 1014.61 1014.29 1014.08 1011.47 1007.74 1007.26 1007.43 1008.60 1008.91 1009.12 1008.76 1008.58 1008.70 1008.53 1008.41 1007.98 1007.72 1006.84 1006.30 1005.56 1004.57 1003.84 1003.62 1002.89 1002.27 1002.96 1004.77 1003.84 1003.26 1003.04 1002.86 1003.49
1018.92 1018.40 1017.97 1017.63 1017.18 1016.74 1016.49 1016.14 1015.73 1015.48 1015.14 1014.94 1014.74 1014.57 1013.97 1013.09 1009.76 1007.51 1007.63 1008.07 1008.39 1008.64 1008.58 1008.20 1007.87 1007.79 1007.61 1007.17 1006.94 1006.60 1006.09 1005.43 1004.56 1004.18 1003.70 1003.25 1003.11 1003.32 1003.34 1003.35 1003.35 1003.47 1003.51 1003.45 1003.51
1018.79 1018.25 1017.70 1017.25 1016.99 1016.40 1016.05 1015.74 1015.51 1015.23 1014.96 1014.71 1014.60 1014.58 1014.05 1011.62 1006.92 1006.87 1007.35 1008.01 1007.69 1008.00 1007.81 1007.53 1006.93 1006.44 1006.50 1006.32 1006.32 1005.28 1005.03 1004.55 1004.04 1003.52 1003.48 1003.36 1003.28 1003.21 1003.39 1003.35 1003.38 1003.45 1003.66 1003.60 1003.70
1018.59 1018.22 1017.71 1016.94 1016.59 1016.14 1015.50 1015.18 1014.96 1014.71 1014.49 1014.40 1014.39 1014.31 1012.76 1009.17 1006.48 1007.02 1006.72 1007.06 1006.89 1006.67 1006.67 1006.28 1005.98 1006.08 1005.81 1005.72 1004.77 1004.62 1004.59 1004.01 1003.62 1003.22 1003.33 1003.29 1003.40 1003.35 1003.12 1003.10 1003.21 1003.46 1003.60 1003.44 1003.64
1018.40 1017.90 1017.56 1016.95 1016.20 1015.82 1015.23 1014.65 1014.35 1014.04 1013.87 1013.88 1014.09 1013.89 1011.02 1006.74 1006.24 1006.33 1006.66 1006.25 1005.95 1005.74 1005.76 1005.42 1005.21 1005.45 1005.81 1005.55 1005.02 1004.94 1004.26 1004.25 1003.53 1003.31 1002.93 1003.39 1003.47 1003.21 1002.81 1002.99 1003.27 1003.50 1003.71 1003.52 1003.65
1018.15 1017.49 1017.00 1016.56 1016.15 1015.42 1014.84 1014.25 1013.65 1013.31 1013.08 1013.47 1013.81 1013.13 1009.08 1005.71 1005.81 1005.26 1005.23 1005.61 1005.46 1005.39 1005.48 1005.32 1005.46 1005.88 1006.09 1006.24 1006.00 1005.07 1004.99 1004.30 1003.54 1002.83 1002.85 1003.01 1003.43 1002.84 1002.46 1002.53 1002.89 1003.63 1003.62 1003.57 1003.61
1017.76 1017.14 1016.51 1015.94 1015.52 1015.13 1014.50 1013.47 1012.82 1013.13 1013.04 1013.15 1012.43 1012.17 1007.86 1005.38 1004.61 1004.79 1004.81 1005.01 1004.96 1005.12 1005.52 1005.64 1006.09 1006.35 1006.45 1006.63 1006.33 1005.52 1005.06 1004.28 1003.28 1002.19 1002.10 1002.67 1002.95 1002.49 1002.55 1002.42 1002.91 1003.44 1003.47 1003.56 1003.70
1017.30 1016.77 1016.13 1015.37 1014.90 1014.65 1014.29 1013.14 1012.71 1012.60 1011.78 1009.74 1008.62 1007.28 1005.17 1004.30 1003.98 1004.37 1004.67 1004.84 1004.92 1005.24 1005.72 1005.71 1006.26 1006.31 1005.96 1005.42 1004.96 1004.64 1004.32 1003.66 1002.53 1001.66 1001.13 1002.11 1002.53 1002.61 1002.29 1002.54 1003.02 1003.11 1003.42 1003.48 1003.53
1016.71 1016.10 1015.33 1014.75 1014.23 1014.16 1014.29 1012.94 1009.54 1008.27 1008.01 1007.28 1006.50 1006.02 1004.60 1004.09 1003.87 1004.18 1004.51 1005.15 1005.42 1005.60 1005.68 1005.86 1005.68 1005.12 1004.64 1004.35 1004.22 1004.05 1003.78 1003.45 1002.82 1002.36 1002.31 1002.53 1002.59 1002.34 1002.25 1002.27 1002.33 1002.56 1002.85 1003.00 1003.09
1016.13 1015.52 1014.98 1014.04 1013.03 1012.98 1012.41 1010.42 1007.83 1007.28 1007.21 1004.86 1004.30 1004.48 1003.85 1003.58 1003.46 1003.73 1004.34 1004.96 1005.41 1005.62 1005.47 1005.33 1004.22 1003.93 1003.69 1003.37 1003.36 1003.36 1003.55 1003.68 1003.55 1003.09 1002.90 1003.08 1003.05 1002.75 1002.45 1002.20 1001.93 1001.93 1002.07 1002.38 1002.73
1015.81 1015.15 1014.55 1013.51 1012.52 1011.73 1010.62 1007.75 1007.53 1007.01 1006.77 1003.87 1002.66 1002.56 1002.84 1003.18 1003.15 1003.15 1003.76 1004.77 1005.19 1005.21 1005.02 1004.52 1003.69 1003.33 1002.87 1002.92 1003.15 1003.39 1003.31 1003.42 1003.73 1004.06 1004.50 1003.88 1004.23 1003.55 1002.82 1002.32 1001.59 1001.61 1003.06 1003.23 1003.49
1015.27 1014.71 1014.13 1014.35 1013.23 1011.46 1008.36 1007.35 1007.01 1007.22 1005.92 1002.97 1002.09 1001.86 1002.17 1002.96 1002.49 1002.96 1003.38 1004.11 1004.60 1004.79 1004.99 1004.19 1003.58 1003.08 1002.41 1002.31 1002.44 1002.92 1003.10 1003.84 1004.42 1005.12 1005.43 1005.22 1005.52 1003.50 1002.99 1002.65 1002.80 1003.16 1003.44 1003.70 1003.80
1014.66 1013.96 1013.70 1012.34 1012.67 1009.68 1008.18 1007.65 1007.42 1007.43 1004.60 1001.98 1001.76 1001.98 1002.56 1002.73 1002.45 1002.58 1003.27 1003.75 1004.20 1004.81 1004.57 1004.03 1003.35 1002.88 1002.43 1002.46 1002.51 1002.91 1003.48 1004.42 1005.40 1006.35 1006.83 1005.67 1006.16 1004.14 1003.41 1002.87 1003.26 1003.40 1003.72 1003.99 1004.19
1013.79 1012.87 1013.32 1012.70 1010.30 1007.94 1008.15 1007.65 1007.80 1005.74 1002.85 1001.98 1001.50 1001.81 1002.19 1002.44 1002.50 1002.78 1003.39 1004.01 1004.47 1004.74 1004.67 1004.26 1003.81 1003.42 1003.00 1002.73 1003.02 1003.65 1004.45 1006.05 1007.00 1007.41 1006.70 1006.59 1006.60 1004.47 1003.54 1002.48 1002.82 1003.65 1003.93 1004.04 1004.25
1013.06 1011.80 1010.40 1009.88 1008.56 1008.43 1008.39 1008.25 1006.98 1004.42 1002.79 1001.93 1001.74 1001.65 1001.83 1001.75 1002.51 1002.52 1002.98 1003.65 1004.02 1004.43 1004.82 1005.09 1004.66 1004.02 1003.52 1003.71 1003.93 1004.35 1005.20 1007.11 1007.96 1008.06 1007.36 1006.21 1005.85 1003.81 1003.51 1003.38 1003.37 1003.69 1003.98 1004.28 1004.54
1012.69 1010.71 1009.52 1007.70 1007.71 1007.94 1008.43 1007.67 1005.49 1004.21 1003.15 1002.85 1002.61 1002.32 1002.24 1002.56 1002.98 1003.03 1003.29 1003.61 1003.58 1004.08 1004.95 1005.78 1005.31 1004.59 1004.27 1004.20 1005.06 1005.05 1005.38 1006.31 1007.87 1007.98 1008.05 1006.78 1005.43 1005.03 1004.19 1004.07 1003.98 1004.18 1004.41 1004.58 1004.71
1013.32 1011.09 1008.68 1006.47 1006.90 1007.31 1008.04 1006.81 1005.20 1004.09 1003.49 1003.61 1003.43 1003.02 1003.56 1003.66 1003.99 1004.06 1004.02 1003.85 1003.86 1004.19 1004.67 1005.87 1006.49 1005.89 1005.01 1005.00 1005.24 1005.50 1005.67 1006.53 1007.69 1008.96 1008.68 1007.15 1005.92 1005.53 1005.05 1004.76 1004.70 1004.78 1004.81 1004.80 1004.84
1012.82 1010.32 1006.81 1005.91 1006.67 1007.66 1007.50 1006.34 1005.27 1003.95 1003.88 1004.08 1004.17 1004.46 1004.64 1004.82 1004.78 1004.71 1004.74 1004.62 1004.62 1004.61 1004.99 1006.05 1007.19 1006.91 1006.49 1005.83 1005.68 1005.99 1006.06 1006.98 1008.40 1009.34 1009.39 1008.49 1006.53 1005.19 1005.25 1005.01 1004.88 1004.94 1005.13 1005.68 1006.09
1012.37 1009.61 1006.39 1006.20 1007.18 1007.15 1006.94 1006.85 1005.78 1003.94 1003.94 1004.23 1004.79 1005.32 1005.53 1005.66 1005.79 1005.73 1005.25 1004.89 1005.22 1005.29 1005.60 1006.57 1007.58 1007.79 1007.08 1006.07 1005.92 1006.05 1006.36 1007.24 1009.22 1010.06 1009.58 1008.80 1007.26 1005.83 1005.38 1005.27 1005.08 1006.12 1006.61 1006.78 1007.07
1013.21 1009.74 1006.07 1006.50 1007.14 1006.90 1006.53 1006.39 1005.31 1004.28 1004.38 1004.95 1005.56 1006.13 1006.45 1006.85 1006.88 1006.18 1005.89 1005.55 1005.68 1005.83 1006.96 1007.43 1008.11 1008.55 1007.50 1006.65 1006.83 1006.53 1006.64 1007.08 1007.76 1008.54 1008.96 1008.92 1007.83 1006.24 1005.73 1006.05 1006.94 1007.37 1007.64 1007.67 1007.59
1013.48 1010.38 1007.23 1006.83 1006.80 1007.19 1007.13 1006.58 1005.66 1005.19 1005.35 1006.01 1006.66 1007.00 1007.56 1007.80 1007.50 1007.21 1006.96 1006.92 1006.98 1006.63 1007.44 1008.04 1008.64 1009.03 1008.81 1008.27 1008.27 1008.27 1007.48 1007.49 1007.41 1008.04 1008.20 1008.05 1007.62 1006.89 1007.40 1007.54 1007.73 1008.02 1008.22 1008.29 1008.23
1013.41 1010.84 1009.69 1008.35 1008.06 1008.11 1007.74 1007.38 1006.82 1006.41 1006.96 1007.12 1007.72 1008.37 1009.04 1008.93 1008.46 1008.26 1008.43 1008.44 1008.07 1008.17 1008.26 1008.71 1009.31 1009.41 1008.95 1008.24 1007.70 1007.16 1006.97 1006.62 1006.75 1006.92 1007.27 1007.46 1007.66 1008.40 1008.43 1008.57 1008.89 1009.10 1009.02 1008.75 1008.48
1013.22 1012.40 1010.94 1009.78 1009.03 1008.35 1007.99 1007.54 1007.43 1007.54 1008.15 1008.34 1008.68 1009.07 1009.81 1010.12 1010.11 1009.78 1009.68 1009.50 1009.25 1008.88 1009.13 1009.29 1009.68 1009.70 1009.40 1008.56 1007.67 1006.83 1006.26 1005.95 1005.88 1005.94 1006.11 1006.87 1008.10 1008.95 1008.88 1009.01 1008.97 1009.27 1009.32 1009.15 1009.13
1012.78 1012.54 1012.03 1010.63 1009.82 1009.33 1008.26 1007.98 1008.13 1008.24 1008.75 1009.09 1009.50 1009.90 1010.20 1010.36 1010.51 1010.37 1010.22 1010.10 1009.93 1009.96 1010.10 1010.34 1010.40 1010.58 1010.08 1008.87 1007.73 1006.59 1005.54 1005.35 1005.66 1006.52 1006.98 1008.35 1009.31 1008.88 1008.77 1009.31 1009.89 1009.76 1009.72 1009.68 1009.25
Wind_Speed
16 16 16 15 15 16 15 16 14 13 12 11 11 12 13 13 15 11 9 13 9 14 3 7 10 9 6 6 9 8 8 12 17 15 19 15 5 6 10 12 3 0 7 5 7
17 17 17 17 16 15 16 17 17 15 14 14 12 11 11 13 9 11 16 16 16 9 4 8 13 16 8 7 7 6 7 17 14 16 18 16 11 12 4 17 7 6 7 6 2
17 17 17 17 17 17 17 16 16 17 16 14 13 12 12 11 5 8 3 24 12 12 8 9 9 5 8 8 9 10 10 16 16 23 21 23 11 18 17 9 27 19 7 3 7
16 17 17 18 17 17 18 17 18 17 16 14 14 12 12 4 1 2 5 17 13 8 7 5 7 5 4 10 11 8 16 18 21 20 21 11 2 5 5 17 11 8 6 4 6
16 16 17 18 18 18 18 19 18 18 17 15 13 11 7 4 12 5 11 11 8 5 9 10 8 7 9 10 10 10 16 19 22 19 11 6 4 4 6 6 3 6 6 6 3
17 17 17 17 18 18 18 18 17 17 17 14 10 9 5 6 5 13 12 8 11 9 10 9 10 11 9 9 9 12 17 17 13 15 8 3 6 3 6 6 6 6 8 5 6
17 17 17 17 18 19 18 18 18 18 17 12 8 6 7 17 4 6 15 8 12 13 13 16 16 6 8 9 9 10 11 12 12 8 6 3 8 9 9 8 10 9 9 8 9
18 18 19 19 18 19 20 18 19 20 17 10 6 6 10 8 10 16 14 9 12 10 7 10 8 5 4 9 11 10 4 3 7 9 11 9 9 10 12 9 12 9 6 4 5
19 18 19 20 20 21 20 20 22 18 10 6 4 5 10 6 6 9 11 14 14 8 6 10 6 3 8 6 7 6 6 7 11 15 11 10 6 12 12 1 10 8 8 6 6
20 20 20 21 20 20 20 24 15 5 4 8 8 3 8 6 8 10 7 10 10 6 6 5 2 4 5 1 6 8 6 9 15 19 19 9 9 12 7 10 13 11 10 10 9
21 22 23 21 20 17 12 6 1 3 6 12 11 8 8 5 6 5 6 8 5 4 6 8 4 7 13 14 16 15 15 10 9 14 10 9 5 7 6 3 7 8 10 10 11
21 22 23 23 21 15 6 5 9 7 7 20 19 17 16 8 6 7 8 5 5 6 8 7 8 14 16 16 13 11 4 8 10 9 2 5 5 3 5 7 6 8 9 10 13
21 21 24 26 27 6 8 10 11 12 5 12 19 11 14 11 8 9 11 7 6 9 11 10 13 14 19 8 8 7 4 7 9 9 7 5 6 5 9 7 11 9 9 8 7
22 21 21 25 5 5 6 11 15 5 3 7 6 10 14 8 7 8 12 8 6 9 9 8 12 14 11 5 6 6 11 10 12 5 3 5 5 7 8 10 12 16 11 10 10
22 22 19 12 7 5 7 7 5 4 2 9 8 5 7 9 5 11 15 9 9 9 6 10 9 11 11 9 9 8 4 5 6 7 7 9 4 8 9 11 9 10 9 9 9
23 22 20 6 5 12 13 13 4 2 5 5 8 7 7 10 11 13 7 4 6 11 11 12 12 10 6 14 5 5 4 7 5 2 4 10 5 10 6 4 7 7 8 8 8
24 27 14 6 6 7 11 3 3 5 6 2 5 15 13 12 13 13 13 10 6 4 6 9 9 6 14 8 8 10 3 2 4 1 11 12 5 9 5 3 12 8 7 7 6
25 31 7 10 10 10 3 3 4 8 8 2 4 4 6 11 3 9 8 8 11 6 3 3 9 5 7 3 4 9 1 4 3 4 6 9 7 6 9 10 9 9 8 6 6
25 4 5 6 14 5 1 4 3 8 8 7 9 7 6 8 6 5 4 3 3 5 5 1 5 8 9 8 7 5 9 8 4 5 1 4 6 12 11 7 6 6 4 3 6
7 4 6 9 8 2 1 6 8 15 7 6 5 6 8 4 2 1 3 4 0 4 8 4 3 8 7 6 5 7 5 5 4 2 3 4 1 1 7 5 6 5 4 6 7
2 4 3 3 5 1 4 5 6 3 4 2 6 7 9 6 8 4 4 7 5 4 4 7 6 5 8 3 4 5 4 1 3 4 5 2 6 4 4 1 3 5 4 7 9
4 3 5 2 2 4 4 3 17 3 6 4 4 3 5 8 3 7 6 8 2 7 2 4 4 3 7 11 9 10 1 2 5 5 4 3 8 8 8 5 8 11 13 10 8
5 5 4 4 3 3 2 8 13 6 6 5 3 2 5 5 5 4 6 7 3 2 4 2 1 2 8 3 4 4 5 10 9 5 6 5 7 9 12 10 11 10 10 11 12
3 5 0 1 3 3 5 6 8 6 8 7 7 7 7 5 5 4 6 9 10 1 7 4 1 4 5 2 5 4 13 15 9 3 5 6 7 10 9 8 10 12 12 12 11
3 4 4 4 5 5 5 6 10 4 9 5 3 8 6 4 8 1 4 9 7 4 1 6 4 5 8 10 10 10 13 17 15 12 7 7 7 8 7 8 9 9 12 14 14
1 5 5 5 9 4 5 3 6 6 5 5 5 6 4 4 6 7 6 4 4 6 3 6 4 4 7 11 13 15 14 16 16 17 10 3 7 5 7 10 14 13 15 14 15
3 4 3 6 7 8 2 4 2 1 4 7 4 4 6 6 7 7 6 6 7 4 3 2 1 2 4 8 10 7 13 12 2 15 6 7 4 14 16 17 14 15 12 14 19
Wind_Direction
348 347 345 345 345 341 340 339 328 323 318 314 313 314 314 316 306 257 236 225 193 225 224 280 283 259 217 243 253 251 234 244 252 243 253 270 258 264 316 299 309 296 88 162 152
342 342 342 340 338 338 337 333 334 326 320 320 320 321 322 322 292 254 240 224 235 165 188 231 242 231 199 219 235 193 237 247 258 258 267 278 262 231 155 284 289 320 337 346 73
339 338 337 336 334 331 331 329 330 329 322 319 320 324 326 322 285 245 270 213 172 171 234 251 279 297 211 208 236 245 240 253 236 256 261 271 300 216 182 200 267 283 312 0 35
335 334 334 331 329 328 325 325 323 325 323 314 314 318 316 278 329 73 59 163 165 201 230 233 241 231 239 221 229 232 246 248 255 250 256 280 335 106 124 204 236 273 300 4 19
330 330 329 327 324 324 320 319 317 320 318 310 306 315 318 231 248 179 143 149 154 177 217 227 252 244 222 219 227 211 240 244 249 255 271 260 271 213 228 231 276 303 308 270 299
323 324 324 326 322 321 317 315 311 313 310 304 293 307 238 257 235 149 152 169 177 182 220 231 239 252 265 236 217 231 231 238 242 246 248 227 242 230 211 202 261 291 275 267 248
320 319 318 321 318 317 314 313 308 308 306 299 271 264 256 242 193 179 155 198 211 196 215 228 238 271 312 314 265 287 257 243 241 262 245 256 288 250 239 203 200 233 254 251 238
320 318 315 317 316 314 311 308 305 303 298 272 242 260 252 256 239 277 236 201 241 244 246 288 301 342 329 299 311 294 320 308 270 238 248 160 257 258 244 194 196 213 244 246 274
317 315 313 313 315 313 311 306 300 298 284 198 193 228 260 287 209 238 212 205 223 213 256 264 3 288 305 296 313 288 242 257 260 245 217 164 227 246 261 284 166 205 223 227 256
316 315 312 310 311 315 312 296 285 313 197 186 259 244 263 235 212 216 229 247 240 183 210 207 249 222 290 250 239 259 236 255 253 252 213 196 213 243 205 157 177 188 200 207 220
312 313 311 309 310 315 321 325 97 189 244 201 192 230 282 188 95 172 190 242 253 235 215 231 182 224 230 233 235 246 258 267 314 344 151 189 191 227 268 204 193 209 213 211 213
311 311 311 310 310 309 297 254 256 276 292 221 246 232 265 265 171 172 161 201 222 243 225 257 226 238 250 254 251 251 323 319 316 315 328 255 242 280 302 283 238 223 217 205 215
310 312 315 315 313 285 211 228 252 294 285 289 206 217 230 239 236 198 176 196 224 229 251 224 248 232 239 273 322 323 299 295 282 303 323 355 332 308 270 252 254 240 220 208 199
312 315 321 329 316 332 236 260 246 272 305 242 144 210 221 208 233 232 169 162 224 250 258 258 266 272 267 215 246 263 271 251 265 354 287 35 287 291 282 274 246 233 59 79 71
314 315 320 319 287 279 308 318 352 30 282 173 147 130 154 171 141 219 169 189 234 230 230 264 279 287 265 260 214 242 266 18 357 351 16 308 350 283 277 287 77 80 75 65 70
313 312 324 308 201 247 296 302 3 237 247 196 141 174 151 217 249 152 164 170 223 250 260 268 289 299 304 319 326 348 24 351 349 22 308 262 213 287 253 215 115 107 102 91 82
314 308 304 270 229 310 318 340 260 242 158 307 170 154 187 197 232 169 190 193 202 211 257 282 275 325 318 301 334 337 28 318 334 248 240 93 6 236 268 157 121 109 102 100 107
317 310 250 205 223 257 258 316 240 301 356 153 24 322 261 204 204 248 178 210 205 237 253 279 304 299 347 357 308 295 41 139 179 264 302 317 210 243 110 81 86 86 81 74 116
316 299 261 233 222 232 7 255 251 309 20 9 326 267 276 50 32 253 163 315 152 192 185 36 260 344 320 355 330 357 242 179 196 248 283 249 276 46 74 80 81 96 123 235 278
315 290 263 259 190 97 198 258 287 301 50 6 308 351 360 21 305 209 335 306 328 344 123 150 315 315 335 28 292 248 280 9 340 331 249 259 360 91 38 19 79 25 334 276 340
239 283 247 190 103 103 226 273 328 71 104 354 4 332 337 354 350 311 172 321 342 321 135 157 128 281 344 239 282 298 345 303 90 148 182 300 267 166 36 48 35 275 327 53 38
299 265 197 160 153 217 222 183 298 330 8 41 32 303 315 355 359 319 322 285 255 305 221 99 150 244 251 276 266 258 266 209 121 281 295 166 278 299 300 294 317 38 39 51 55
309 274 261 115 236 279 265 216 254 316 85 28 13 267 348 349 330 325 354 75 161 358 22 116 229 323 311 283 19 322 226 290 185 168 209 156 266 290 285 23 50 44 27 17 11
287 296 169 225 259 346 33 305 342 58 58 43 5 350 29 328 298 309 352 13 337 93 104 54 332 184 218 197 163 257 292 284 285 133 228 219 258 275 39 36 29 24 18 7 356
246 284 350 332 343 349 335 304 292 15 28 24 105 43 20 296 341 33 15 342 347 321 349 146 227 261 273 284 276 259 236 267 268 254 216 237 238 55 42 23 30 14 1 348 340
311 350 342 299 289 291 274 301 24 37 35 330 345 43 1 293 331 324 357 334 293 342 285 338 241 273 284 289 277 272 266 263 267 266 256 320 95 41 24 17 14 4 347 342 337
359 325 321 307 311 301 259 71 24 218 49 88 74 15 305 333 330 303 294 258 245 284 306 310 132 77 264 281 314 278 251 275 219 49 49 55 342 7 6 8 359 337 340 332 324